Miscellaneous Local Product
Issued by NWS North Platte, NE

Home | Current Version | Previous Version | Graphics & Text | Print | Product List | Glossary On
Versions: 1 2 3 4 5 6 7 8 9 10 11 12 13 14 15 16 17 18 19 20 21 22 23 24 25 26 27 28 29 30 31 32 33 34 35 36 37 38 39 40 41 42 43 44 45 46 47 48 49 50
000
AXUS43 KLBF 221910
MISLBF


WESTERN AND NORTH CENTRAL NEBRASKA HOURLY WEATHER ROUNDUP
NATIONAL WEATHER SERVICE NORTH PLATTE NE
200 PM CDT WED OCT 22 2014

***STATIONS NOT REPORTING VARIABLES SUCH AS SKY/WEATHER OR
PRESSURE ARE PROVIDED BY THE NEBRASKA DEPARTMENT OF
ROADS...RAWS...AND APRS NETWORKS...AND ARE NOT UNDER
NATIONAL WEATHER SERVICE QUALITY CONTROL***

...OBSERVATIONS IN AND NEAR THE EASTERN PANHANDLE OF NEBRASKA...

CITY           SKY/WX    TMP DP  RH WIND       PRES   REMARKS
PINE RIDGE     SUNNY     59  39  47 CALM      30.04F
CHADRON        SUNNY     62  34  35 VRB7      30.03F
ALLIANCE       SUNNY     63  33  32 NW15      30.05F
SIDNEY         SUNNY     64  35  34 N13G24    30.07F
WHITECLAY        N/A     58  37  44 W5          N/A
RUSHVILLE        N/A     64  36  34 S5          N/A
CRESCENT LAKE    N/A     65  34  31 NW13G20     N/A
LISCO            N/A     68  17  14 W20         N/A
BIG SPRINGS      N/A     66  45  46 N10         N/A
LEWELLEN         N/A     73  30  20 W12         N/A
$$

...OBSERVATIONS IN NORTH CENTRAL NEBRASKA...

CITY           SKY/WX    TMP DP  RH WIND       PRES   REMARKS
VALENTINE      MOSUNNY   62  45  53 NW12      30.01F
THEDFORD       PTSUNNY   60  51  71 NW7       30.04R
AINSWORTH      CLOUDY    56  50  78 NW7       30.02S
O`NEILL        RAIN      56  53  88 CALM      29.99S
ORD            LGT RAIN  63  54  72 W8        29.99S
BROKEN BOW     LGT RAIN  59  56  89 N5        29.99F
BROWNLEE         N/A     62  48  58 W8          N/A
SPRINGVIEW       N/A     57  51  79 NW7         N/A
BREWSTER         N/A     60  56  85 N5          N/A
ROSE             N/A     56  55  97 W3          N/A
NEWPORT          N/A     56  53  89 W5          N/A
SARGENT          N/A     58  56  93 CALM        N/A
COMSTOCK         N/A     64  61  88 CALM        N/A
CHAMBERS         N/A     60  52  75 CALM        N/A
$$

...OBSERVATIONS IN SOUTHWEST NEBRASKA AND FAR NORTHEAST COLORADO...

CITY           SKY/WX    TMP DP  RH WIND       PRES   REMARKS
WRAY           FAIR      72  40  31 N8G16     30.05F
HOLYOKE        FAIR      73  37  27 N15       30.05F
IMPERIAL       MOSUNNY   70  49  47 N9        30.03F
OGALLALA       SUNNY     70  41  34 NW16      30.03F
NORTH PLATTE   CLOUDY    64  53  67 CALM      30.02F
MCCOOK         CLOUDY    66  51  58 CALM      30.00F
LEXINGTON      RAIN      61  56  84 CALM      29.99F
PAXTON           N/A     67  53  61 NW5         N/A
SUTHERLAND       N/A     68  51  52 CALM        N/A
BRADY            N/A     62  53  72 CALM        N/A
GOTHENBURG       N/A     60  53  79 CALM        N/A
CALLAWAY         N/A     58  55  89 SE3         N/A
$$

...SOME WEATHER OBSERVATIONS FROM AROUND THE REGION...

CITY           SKY/WX    TMP DP  RH WIND       PRES   REMARKS
DENVER         PTSUNNY   68  38  33 SE3       30.09F
LARAMIE        MOSUNNY   55  29  36 W20G32    30.15F
CHEYENNE       PTSUNNY   63  34  33 SW15      30.10F
SCOTTSBLUFF    SUNNY     64  31  28 NW10G23   30.07F
RAPID CITY     SUNNY     64  29  26 N8        30.00F
PIERRE         CLOUDY    61  47  59 NW12      29.93F
WINNER         CLOUDY    58  50  75 NW9       29.99S
SIOUX FALLS    PTSUNNY   70  52  52 S21G29    29.94F
OMAHA          MOSUNNY   73  51  46 S22       30.04F
GRAND ISLAND   LGT RAIN  65  58  78 W12       30.00S
KANSAS CITY    MOSUNNY   70  55  59 SE15      30.13F
WICHITA        PTSUNNY   78  55  44 S21G31    30.07F
HAYS           CLOUDY    70  55  60 S21G29    29.99F
LIBERAL        CLOUDY    68  55  64 S23G31    30.05F
GOODLAND       SUNNY     72  46  39 N16       30.04F
$$



USA.gov is the U.S. government's official web portal to all federal, state and local government web resources and services.